Flag for Israel Weather past 2 weeks in Kfar Saba, Israel

Now
84 °F

Passing clouds.


Feels Like: 88 °F
Forecast: 73 / 88 °F
Wind: 10 mph from Northwest

Location: Dov Airport

Current Time: Sep 23, 2014 at 5:27:58 PM

Latest Report: Sep 23, 2014 at 4:50 PM


Visibility: N/A

Pressure: 29.89 "Hg

Humidity: 62%

Dew point: 70 °F

Location of Kfar SabaLocation

Historic Weather in Kfar Saba — Graph

°F

Kfar Saba temperature yesterday

Maximum temperature yesterday: 86 °F (at 11:50 AM)
Minimum temperature yesterday: 73 °F (at 5:50 AM)
Average temperature yesterday: 82 °F

Past Weeks' High & Low Weather Summary

 TemperatureHumidityPressure
High91 °F (Sep 17, 3:50 PM)78% (Sep 10, 6:50 AM)29.95 "Hg (Sep 10, 6:50 AM)
Low73 °F (Sep 22, 5:50 AM)31% (Sep 17, 9:50 AM)29.68 "Hg (Sep 17, 3:50 PM)
Average83 °F61%29.86 "Hg
* Reported Sep 8 3:50 PM — Sep 23 3:50 PM, Kfar Saba, Weather by CustomWeather, © 2014

Note: Actual official high and low records may vary slightly from our data, if they occured in-between our weather recording intervals... More about our weather records

Advertising

Kfar Saba weather history for previous 24 hours

 ConditionsComfort  
Time TempWeatherWind HumidityBarometerVisibility
3:50 PM
Sep 23
86 °FPassing clouds.9 mph59%29.89 "HgN/A
2:50 PM84 °FPassing clouds.10 mph62%29.89 "HgN/A
1:50 PM86 °FPassing clouds.9 mph59%29.89 "HgN/A
12:50 PM84 °FPassing clouds.12 mph66%29.89 "HgN/A
11:50 AM84 °FPassing clouds.10 mph66%29.92 "HgN/A
10:50 AM84 °FPassing clouds.8 mph62%29.92 "HgN/A
9:50 AM84 °FPassing clouds.8 mph62%29.92 "HgN/A
8:50 AM82 °FPassing clouds.6 mph58%29.89 "HgN/A
7:50 AM79 °FPassing clouds.5 mph65%29.89 "HgN/A
6:50 AM75 °FPassing clouds.5 mph74%29.86 "HgN/A
5:50 AM75 °FPassing clouds.6 mph74%29.86 "HgN/A
5:00 AM77 °FPassing clouds.6 mph69%29.86 "HgN/A
10:50 PM
Sep 22
79 °FClear.3 mph65%29.89 "Hg10 mi
9:50 PM81 °FPassing clouds.2 mph62%29.89 "HgN/A
8:50 PM81 °FPassing clouds.3 mph62%29.86 "HgN/A
7:50 PM81 °FPassing clouds.3 mph62%29.86 "HgN/A
6:50 PM81 °FScattered clouds.8 mph62%29.86 "HgN/A
5:50 PM82 °FScattered clouds.9 mph62%29.86 "HgN/A
Weather by CustomWeather, © 2014

See weather overviewHow to use our weather pages